| time (UTC) | temp F | wind direction | speed knots | gust knots | rain 1hr in | rain 24hr in | rain mn in | humidity % | barometer mb |
| 20260906113040 | 79 | 175 | 0.0 | 0.0 | 0.00 | 0.00 | 0.00 | 78 | 1010.6 |
| 20260906111638 | 79 | 175 | 0.0 | 0.0 | 0.00 | 0.00 | 0.00 | 77 | 1010.3 |
| 20260906110043 | 79 | 175 | 0.0 | 0.0 | 0.00 | 0.00 | 0.00 | 77 | 1010.2 |
| 20260906104541 | 78 | 175 | 0.0 | 0.0 | 0.00 | 0.00 | 0.00 | 77 | 1010.3 |
| 20260906103038 | 78 | 175 | 0.0 | 0.0 | 0.00 | 0.00 | 0.00 | 77 | 1010.1 |
| 20260906101536 | 78 | 171 | 0.0 | 0.0 | 0.00 | 0.00 | 0.00 | 76 | 1009.9 |
| 20260906100035 | 79 | 171 | 0.0 | 0.0 | 0.00 | 0.00 | 0.00 | 75 | 1009.7 |
| 20260906094557 | 79 | 171 | 0.0 | 0.0 | 0.00 | 0.00 | 0.00 | 75 | 1009.6 |
| 20260906093037 | 79 | 171 | 0.0 | 0.0 | 0.00 | 0.00 | 0.00 | 74 | 1009.5 |
| 20260906091540 | 79 | 171 | 0.0 | 0.0 | 0.00 | 0.00 | 0.00 | 74 | 1009.5 |
| 20260906090031 | 79 | 172 | 0.0 | 0.0 | 0.00 | 0.00 | 0.00 | 73 | 1009.5 |
| 20260906084535 | 79 | 172 | 0.0 | 0.0 | 0.00 | 0.00 | 0.00 | 72 | 1009.6 |
| 20260906083033 | 80 | 172 | 0.0 | 0.0 | 0.00 | 0.00 | 0.00 | 72 | 1009.6 |
| 20260906081541 | 80 | 172 | 0.0 | 0.0 | 0.00 | 0.00 | 0.00 | 72 | 1009.8 |
| 20260906080022 | 80 | 172 | 0.0 | 0.0 | 0.00 | 0.00 | 0.00 | 72 | 1010.1 |
| 20260906074522 | 81 | 172 | 0.0 | 0.0 | 0.00 | 0.00 | 0.00 | 71 | 1010.3 |
| 20260906073019 | 81 | 172 | 0.0 | 0.0 | 0.00 | 0.00 | 0.00 | 70 | 1010.4 |
| 20260906071516 | 81 | 172 | 0.0 | 0.0 | 0.00 | 0.00 | 0.00 | 70 | 1010.6 |
| 20260906070015 | 81 | 172 | 0.0 | 0.0 | 0.00 | 0.00 | 0.00 | 70 | 1010.8 |
| 20260906064513 | 82 | 210 | 0.0 | 1.7 | 0.00 | 0.00 | 0.00 | 69 | 1011.1 |
| 20260906063012 | 82 | 184 | 0.0 | 2.6 | 0.00 | 0.00 | 0.00 | 67 | 1011.1 |
| 20260906061514 | 82 | 171 | 0.0 | 2.6 | 0.00 | 0.00 | 0.00 | 66 | 1011.1 |
| 20260906060008 | 82 | 177 | 0.0 | 2.6 | 0.00 | 0.00 | 0.00 | 65 | 1011.2 |
| 20260906054508 | 83 | 176 | 0.0 | 0.0 | 0.00 | 0.00 | 0.00 | 64 | 1011.3 |
| 20260906053004 | 83 | 175 | 0.0 | 0.9 | 0.00 | 0.00 | 0.00 | 63 | 1011.2 |
| 20260906051502 | 84 | 173 | 0.0 | 5.2 | 0.00 | 0.00 | 0.00 | 62 | 1011.1 |
| 20260906050120 | 84 | 161 | 0.0 | 2.6 | 0.00 | 0.00 | 0.00 | 61 | 1011.3 |
| 20260906044558 | 84 | 167 | 0.0 | 5.2 | 0.00 | 0.00 | 0.00 | 60 | 1011.3 |
| 20260906043058 | 85 | 165 | 0.0 | 4.3 | 0.00 | 0.00 | 0.00 | 58 | 1011.3 |
| 20260906041557 | 85 | 162 | 0.9 | 6.1 | 0.00 | 0.00 | 0.00 | 57 | 1011.3 |
| 20260906040126 | 86 | 167 | 0.0 | 3.5 | 0.00 | 0.00 | 0.00 | 55 | 1011.3 |
| 20260906034604 | 86 | 161 | 0.0 | 3.5 | 0.00 | 0.00 | 0.00 | 53 | 1011.2 |
| 20260906033057 | 86 | 153 | 1.7 | 7.0 | 0.00 | 0.00 | 0.00 | 52 | 1010.6 |
| 20260906031601 | 87 | 154 | 0.0 | 15.6 | 0.00 | 0.00 | 0.00 | 52 | 1010.5 |
| 20260906030054 | 87 | 130 | 0.9 | 9.6 | 0.00 | 0.00 | 0.00 | 51 | 1010.2 |
| 20260906024553 | 88 | 159 | 0.0 | 3.5 | 0.00 | 0.00 | 0.00 | 49 | 1009.9 |
| 20260906023052 | 88 | 144 | 0.0 | 5.2 | 0.00 | 0.00 | 0.00 | 48 | 1009.6 |
| 20260906021602 | 89 | 132 | 0.0 | 6.1 | 0.00 | 0.00 | 0.00 | 46 | 1009.2 |
| 20260906020057 | 90 | 153 | 0.9 | 4.3 | 0.00 | 0.00 | 0.00 | 44 | 1008.8 |
| 20260906014557 | 91 | 147 | 0.0 | 7.8 | 0.00 | 0.00 | 0.00 | 43 | 1008.7 |
| 20260906013050 | 92 | 134 | 0.0 | 0.0 | 0.00 | 0.00 | 0.00 | 38 | 1008.4 |
| 20260906011550 | 93 | 144 | 0.0 | 0.9 | 0.00 | 0.00 | 0.00 | 37 | 1008.2 |
| 20260906010051 | 94 | 152 | 0.0 | 2.6 | 0.00 | 0.00 | 0.00 | 36 | 1007.9 |
| 20260906004554 | 95 | 111 | 0.9 | 3.5 | 0.00 | 0.00 | 0.00 | 32 | 1007.9 |
| 20260906003048 | 96 | 143 | 0.0 | 0.0 | 0.00 | 0.00 | 0.00 | 29 | 1007.8 |
| 20260906001553 | 96 | 148 | 0.0 | 3.5 | 0.00 | 0.00 | 0.00 | 30 | 1007.8 |
| 20260906000047 | 97 | 108 | 0.0 | 0.9 | 0.00 | 0.00 | 0.00 | 30 | 1007.7 |
| 20260905234546 | 97 | 153 | 0.0 | 2.6 | 0.00 | 0.00 | 0.00 | 30 | 1007.6 |
| 20260905233045 | 98 | 165 | 0.0 | 0.0 | 0.00 | 0.00 | 0.00 | 29 | 1007.6 |
| 20260905231545 | 98 | 138 | 0.0 | 2.6 | 0.00 | 0.00 | 0.00 | 29 | 1007.6 |
| 20260905230051 | 99 | 181 | 1.7 | 6.1 | 0.00 | 0.00 | 0.00 | 29 | 1007.6 |
| 20260905224551 | 98 | 171 | 0.0 | 12.2 | 0.00 | 0.00 | 0.00 | 30 | 1007.7 |
| 20260905223045 | 98 | 106 | 0.9 | 3.5 | 0.00 | 0.00 | 0.00 | 30 | 1007.7 |
| 20260905221547 | 97 | 98 | 0.0 | 0.9 | 0.00 | 0.00 | 0.00 | 30 | 1007.8 |
| 20260905220040 | 96 | 144 | 0.0 | 0.0 | 0.00 | 0.00 | 0.00 | 32 | 1007.9 |
| 20260905214539 | 97 | 111 | 0.0 | 6.1 | 0.00 | 0.00 | 0.00 | 31 | 1008.0 |
| 20260905213037 | 97 | 155 | 0.0 | 6.1 | 0.00 | 0.00 | 0.00 | 33 | 1008.1 |
| 20260905211544 | 98 | 125 | 0.0 | 2.6 | 0.00 | 0.00 | 0.00 | 35 | 1008.2 |
| 20260905210046 | 99 | 148 | 0.0 | 6.1 | 0.00 | 0.00 | 0.00 | 34 | 1008.2 |
| 20260905204530 | 98 | 112 | 0.9 | 3.5 | 0.00 | 0.00 | 0.00 | 35 | 1008.4 |
| 20260905203033 | 98 | 97 | 0.0 | 4.3 | 0.00 | 0.00 | 0.00 | 34 | 1008.8 |
| 20260905201527 | 98 | 53 | 0.0 | 3.5 | 0.00 | 0.00 | 0.00 | 36 | 1009.2 |
| 20260905200030 | 98 | 67 | 0.9 | 6.1 | 0.00 | 0.00 | 0.00 | 34 | 1009.4 |
| 20260905194520 | 98 | 360 | 0.0 | 1.7 | 0.00 | 0.00 | 0.00 | 35 | 1009.8 |
| 20260905193016 | 97 | 44 | 0.0 | 5.2 | 0.00 | 0.00 | 0.00 | 38 | 1009.9 |
| 20260905191513 | 96 | 104 | 0.0 | 4.3 | 0.00 | 0.00 | 0.00 | 39 | 1010.3 |
| 20260905190010 | 96 | 61 | 0.0 | 0.0 | 0.00 | 0.00 | 0.00 | 40 | 1010.5 |
| 20260905184508 | 95 | 219 | 0.0 | 5.2 | 0.00 | 0.00 | 0.00 | 43 | 1010.9 |
| 20260905183008 | 94 | 5 | 0.9 | 4.3 | 0.00 | 0.00 | 0.00 | 43 | 1011.1 |
| 20260905181506 | 94 | 86 | 0.0 | 1.7 | 0.00 | 0.00 | 0.00 | 46 | 1011.4 |
| 20260905180005 | 95 | 182 | 1.7 | 7.8 | 0.00 | 0.00 | 0.00 | 47 | 1011.5 |
| 20260905174605 | 94 | 182 | 0.0 | 6.1 | 0.00 | 0.00 | 0.00 | 50 | 1011.7 |
| 20260905173058 | 93 | 178 | 0.0 | 5.2 | 0.00 | 0.00 | 0.00 | 51 | 1012.0 |
| 20260905171604 | 92 | 224 | 0.0 | 5.2 | 0.00 | 0.00 | 0.00 | 56 | 1012.2 |
| 20260905170057 | 92 | 156 | 0.9 | 4.3 | 0.00 | 0.00 | 0.00 | 57 | 1012.5 |
| 20260905164550 | 90 | 186 | 0.0 | 8.7 | 0.00 | 0.00 | 0.00 | 60 | 1012.4 |
| 20260905163046 | 88 | 196 | 0.0 | 1.7 | 0.00 | 0.00 | 0.00 | 63 | 1012.5 |
| 20260905161545 | 89 | 183 | 0.0 | 4.3 | 0.00 | 0.00 | 0.00 | 63 | 1012.6 |
| 20260905160048 | 88 | 227 | 0.0 | 5.2 | 0.00 | 0.00 | 0.00 | 66 | 1012.6 |
| 20260905154552 | 88 | 175 | 2.6 | 7.0 | 0.00 | 0.00 | 0.00 | 66 | 1012.7 |
| 20260905153037 | 87 | 164 | 0.0 | 3.5 | 0.00 | 0.00 | 0.00 | 68 | 1012.5 |
| 20260905151536 | 86 | 156 | 0.0 | 7.8 | 0.00 | 0.00 | 0.00 | 72 | 1012.5 |
| 20260905150030 | 84 | 198 | 0.0 | 1.7 | 0.00 | 0.00 | 0.00 | 75 | 1012.5 |
| 20260905144538 | 83 | 186 | 0.0 | 0.0 | 0.00 | 0.00 | 0.00 | 77 | 1012.5 |
| 20260905143026 | 83 | 200 | 0.0 | 0.0 | 0.00 | 0.00 | 0.00 | 77 | 1012.5 |
| 20260905141526 | 82 | 160 | 0.0 | 0.0 | 0.00 | 0.00 | 0.00 | 78 | 1012.4 |
| 20260905140030 | 81 | 161 | 0.0 | 0.0 | 0.00 | 0.00 | 0.00 | 79 | 1012.3 |
| 20260905134521 | 81 | 143 | 0.0 | 0.0 | 0.00 | 0.00 | 0.00 | 80 | 1012.1 |
| 20260905133019 | 80 | 144 | 0.0 | 0.0 | 0.00 | 0.00 | 0.00 | 81 | 1012.0 |
| 20260905131518 | 79 | 153 | 0.0 | 0.0 | 0.00 | 0.00 | 0.00 | 80 | 1011.9 |
| 20260905130019 | 79 | 153 | 0.0 | 0.0 | 0.00 | 0.00 | 0.00 | 80 | 1011.8 |
| 20260905124526 | 79 | 153 | 0.0 | 0.0 | 0.00 | 0.00 | 0.00 | 80 | 1011.6 |
| 20260905123016 | 78 | 153 | 0.0 | 0.0 | 0.00 | 0.00 | 0.00 | 80 | 1011.5 |
| 20260905121518 | 78 | 153 | 0.0 | 0.0 | 0.00 | 0.00 | 0.00 | 79 | 1011.3 |
| 20260905120014 | 78 | 153 | 0.0 | 0.0 | 0.00 | 0.00 | 0.00 | 79 | 1011.3 |
| 20260905114513 | 78 | 153 | 0.0 | 0.0 | 0.00 | 0.00 | 0.00 | 79 | 1011.2 |